Location: Bonac
(42.8765°N, 0.9753°E)
Time: 10:13:02
(UTC+00:00)

USA 267 - Pass Details

Date: 12 January 2026
Orbit: 1101 x 1107 km, 123.0° (Epoch: 10 January)

Event Time Altitude Azimuth Distance (km) Brightness Sun altitude
Exits shadow 18:46:12 39° 89° (E) 1,607 3.6 -21.9°
Maximum altitude 18:48:31 57° 32° (NNE) 1,278 3.3 -22.3°
Drops below altitude 10° 18:54:53 10° 316° (NW) 2,964 6.0 -23.5°
Sets 18:57:25 0° 313° (NW) 3,924 6.7 -23.9°
